Regional Weather Roundup
Issued by NWS

Home | Current Version | Previous Version | Text Only | Print | Product List | Glossary On
Versions: 1 2 3 4 5 6 7 8 9 10 11 12 13 14 15 16 17 18 19 20 21 22 23 24 25 26 27 28 29 30 31 32 33 34 35 36 37 38 39 40 41 42 43 44 45 46 47 48 49 50
000
ASUS43 KOAX 171410
RWRNE

WEATHER ROUNDUP FOR NEBRASKA
NATIONAL WEATHER SERVICE OMAHA NE
800 AM CST SUN DEC 17 2017

NOTES: SATELLITE DATA IS BEING USED TO AUGMENT CLOUD COVER ABOVE
       12000 FEET.
       "FAIR" INDICATES FEW OR NO CLOUDS BELOW 12,000 FEET WITH NO
       SIGNIFICANT WEATHER AND/OR OBSTRUCTIONS TO VISIBILITY.


NEZ001>004-019>022-054>056-171500-
NEBRASKA PANHANDLE

CITY           SKY/WX    TMP DP  RH WIND       PRES   REMARKS
SCOTTSBLUFF    CLOUDY    31  29  92 CALM      30.03S
ALLIANCE       CLOUDY    29  29 100 CALM      30.01S
CHADRON        CLOUDY    30  28  92 CALM      30.03S
GORDON         CLOUDY    31  29  92 CALM      30.02R
KIMBALL        FOG       29  29 100 CALM      30.01R VSB 1/2
SIDNEY         CLOUDY    30  29  96 NW3       30.02R
$$

NEZ057>060-069>072-079>082-171500-
SOUTHWEST NEBRASKA

CITY           SKY/WX    TMP DP  RH WIND       PRES   REMARKS
NORTH PLATTE   CLOUDY    35  32  88 CALM      30.03R
IMPERIAL       CLOUDY    33  33 100 N6        30.03R WCI  28
LEXINGTON      CLEAR     24  22  91 N6        30.03R WCI  17
MCCOOK         CLOUDY    35  31  85 N7        30.04R WCI  29
OGALLALA       CLOUDY    35  33  94 CALM      30.04R
$$

NEZ005>010-023>029-035>040-094-171500-
NORTH CENTRAL NEBRASKA

CITY           SKY/WX    TMP DP  RH WIND       PRES   REMARKS
VALENTINE      CLOUDY    33  30  88 CALM      30.04S
AINSWORTH      CLOUDY    32  32 100 CALM      30.03S FOG
BROKEN BOW     CLOUDY    33  30  88 N6        30.01R WCI  28
O`NEILL        CLOUDY    28  28 100 NW6       30.04S FOG     WCI  22
ORD            PTCLDY    31  29  92 NW9       30.00S WCI  23
THEDFORD       CLOUDY    34  32  94 CALM      30.04R
$$

NEZ041-046>049-061>064-073>077-083>087-171500-
SOUTH CENTRAL NEBRASKA

CITY           SKY/WX    TMP DP  RH WIND       PRES   REMARKS
GRAND ISLAND   CLEAR     26  26 100 N10       30.01R WCI  16
AURORA         CLOUDY    29  27  94 CALM      30.00R
HASTINGS       CLOUDY    25  22  88 N8        30.00R WCI  16
HEBRON         CLOUDY    33  32  93 N7        30.00R WCI  27
HOLDREGE       CLOUDY    27  27 100 N9        30.02R WCI  17
KEARNEY        CLOUDY    26  25  96 NW9       30.03R WCI  17
YORK           CLOUDY    30  30 100 N7        30.01R WCI  23
$$

NEZ011>018-030>034-042>045-171500-
NORTHEAST NEBRASKA

CITY           SKY/WX    TMP DP  RH WIND       PRES   REMARKS
NORFOLK        CLOUDY    30  27  88 N10       30.00R WCI  21
ALBION         CLOUDY    31  28  88 N6        30.00R WCI  26
BLAIR          CLOUDY    28  25  90 N14       29.97F WCI  17
COLUMBUS       CLOUDY    29  27  92 N10       30.00R WCI  20
FREMONT        CLOUDY    28  25  89 NE7       30.00S WCI  21
TEKAMAH        CLOUDY    28  24  85 N12       30.02S WCI  18
WAYNE          CLOUDY    29  28  96 N9        30.02R WCI  21
$$

NEZ050>053-065>068-078-088>093-171500-
SOUTHEAST NEBRASKA

CITY           SKY/WX    TMP DP  RH WIND       PRES   REMARKS
LINCOLN        LGT SNOW  31  28  89 N8        30.02R FOG     WCI  23
OMAHA EPPLEY   CLOUDY    30  23  75 N15       29.99F WCI  19
BEATRICE       CLOUDY    34  32  93 N5        29.98R WCI  30
FALLS CITY     CLOUDY    41  40  96 S7        29.98R
NEBRASKA CITY  MIX PCPN  33  33 100 N7        29.98S WCI  27
PLATTSMOUTH    MIX PCPN  32  29  91 NE6       29.98R WCI  26
$$

NEZ044-045-051>053-067-171500-
OMAHA AREA

CITY           SKY/WX    TMP DP  RH WIND       PRES   REMARKS
OMAHA EPPLEY   CLOUDY    30  23  75 N15       29.99F WCI  19
BLAIR          CLOUDY    28  25  90 N14       29.97F WCI  17
FREMONT        CLOUDY    28  25  89 NE7       30.00S WCI  21
MILLARD        CLOUDY    32  27  81 N3        29.98F
OFFUTT AFB     LGTSLEET  31  26  82 N6        29.98S WCI  25
PLATTSMOUTH    MIX PCPN  32  29  91 NE6       29.98R WCI  26
WAHOO          CLOUDY    30  26  86 N8        30.00R WCI  22
$$




USA.gov is the U.S. government's official web portal to all federal, state and local government web resources and services.